Lid_Strength_Index
4 4 4 4 5 6 5 4 7 2 2 7 6 8 8 12 8 7 7 8 8 8 8 8 8 8 6 4 5 7 5 7 10 8 6 5 6 10 11 11 16 14 13 12
4 4 4 4 4 6 4 5 5 2 3 8 7 7 8 8 8 8 7 8 7 6 7 8 7 6 5 4 5 6 6 8 11 9 7 7 8 8 10 8 8 12 15 15
4 4 4 4 4 5 4 5 6 4 4 5 7 7 8 8 7 7 7 7 6 6 7 6 7 7 5 4 5 3 4 7 9 11 10 8 9 8 7 7 10 12 12 11
4 4 4 4 3 4 4 3 4 5 7 6 7 7 7 8 9 6 6 7 7 7 8 7 7 6 6 5 4 5 5 9 8 8 7 7 7 8 8 8 8 14 11 13
4 4 4 4 3 4 3 5 4 3 6 5 7 9 8 8 8 8 8 7 6 6 7 7 8 6 6 7 5 6 5 10 8 9 7 7 8 7 7 7 7 8 8 9
4 4 5 4 3 5 2 1 2 5 6 5 7 7 7 7 7 7 7 7 6 6 6 5 4 4 4 4 6 6 7 8 10 12 8 8 10 8 8 7 7 7 10 9
4 4 4 3 3 5 2 1 3 5 7 5 6 7 7 7 7 8 7 6 7 4 3 3 3 4 4 4 5 5 7 8 9 11 10 15 9 6 6 8 7 7 8 8
3 4 4 3 3 4 2 0 2 4 6 5 6 6 6 6 6 7 7 6 5 3 4 6 8 7 7 8 7 6 6 8 11 13 12 10 9 11 9 9 9 7 8 7
3 4 3 3 2 4 3 1 -1 2 5 5 4 5 5 7 7 6 5 4 3 3 5 7 10 11 9 9 9 6 6 7 10 11 14 15 11 7 6 6 11 7 7 8
1 3 3 3 2 4 3 0 -1 2 5 3 3 5 5 4 6 6 5 4 4 3 6 8 9 9 8 11 11 12 10 10 13 13 13 11 8 6 6 12 13 7 7 7
1 1 2 3 2 3 3 1 -1 2 4 3 3 3 4 4 4 6 4 5 5 5 7 8 8 9 9 11 8 10 10 11 12 11 13 15 6 7 10 8 6 6 6 6
1 1 2 2 1 3 2 3 0 -0 3 3 1 1 2 1 2 4 4 5 5 5 6 7 6 8 8 8 12 8 11 8 10 10 11 6 5 6 5 5 6 6 6 5
1 2 3 2 3 2 3 2 0 1 3 3 3 3 1 -0 1 1 5 4 3 4 3 6 6 9 6 10 10 9 7 6 8 8 7 6 6 5 4 4 5 4 4 4
1 1 2 2 2 2 3 2 1 2 3 6 4 0 2 0 0 1 1 2 1 2 3 5 6 7 4 7 7 7 6 6 7 7 6 6 5 5 5 5 3 4 3 3
1 1 2 2 2 3 2 1 2 0 3 6 5 2 1 0 1 1 1 2 3 4 5 5 6 4 5 5 5 7 5 7 9 8 6 6 6 5 4 6 5 3 4 4
1 1 2 2 1 3 3 4 0 -0 1 5 7 2 2 2 2 2 2 2 3 3 4 5 4 3 4 7 7 5 4 4 3 5 4 4 4 4 4 4 5 3 3 2
1 1 1 1 3 2 3 3 2 1 -0 5 6 5 2 2 2 2 3 2 3 3 4 5 5 4 4 6 7 4 3 3 3 3 4 5 4 6 3 4 3 2 2 2
1 1 2 2 3 2 2 -0 3 1 2 3 6 6 4 2 4 5 2 4 3 4 4 4 5 4 4 7 4 4 3 3 3 3 3 3 3 3 3 3 3 3 3 3
1 1 2 2 3 3 2 2 3 0 2 7 5 7 7 2 4 3 4 3 6 3 5 5 5 6 7 5 5 4 4 4 4 3 3 3 3 3 3 3 3 3 3 3
1 0 3 5 2 1 2 2 3 4 3 3 6 4 6 4 4 5 5 4 6 8 6 4 6 6 5 4 4 3 3 3 3 4 5 4 4 4 4 3 2 3 3 3
1 4 5 2 1 2 5 6 7 6 7 5 5 4 6 3 6 6 4 8 6 9 7 7 7 10 7 4 4 3 3 2 2 3 3 3 3 3 3 3 2 3 3 2
1 2 1 1 3 4 7 8 6 6 7 5 6 5 4 3 2 5 4 7 7 10 8 9 9 9 6 5 4 3 3 2 3 3 3 2 2 2 2 2 2 2 2 2
1 3 5 6 6 11 10 10 8 8 5 5 5 6 4 4 4 5 5 9 9 6 8 10 10 7 5 5 4 4 3 3 3 3 2 2 2 2 2 3 2 2 2 2
5 7 12 8 9 7 7 6 6 4 5 4 4 5 5 4 5 5 8 6 8 12 11 13 7 6 5 4 4 4 4 3 3 3 2 2 2 2 2 2 2 2 2 2
6 6 12 8 6 5 4 3 4 3 3 4 5 5 4 5 6 6 7 9 9 10 11 8 6 5 4 4 4 4 4 3 3 3 3 3 2 2 2 2 1 1 1 1
5 6 8 5 6 6 5 5 5 3 4 3 4 7 7 7 6 9 9 9 11 11 6 5 5 4 4 4 3 3 3 3 3 3 2 2 2 2 1 1 1 1 1 1
6 7 4 4 5 6 5 4 4 3 4 6 5 8 8 5 7 9 9 9 8 5 4 3 4 4 4 3 3 3 3 3 3 3 2 2 1 1 2 2 3 2 1 1